Temp
64 65 64 64 55 49 43 52 57 61 70 70 73 71 70 72 70 63 77 81 83 79 79 80 80 80 80 79 79 79 78 79 79 79 79 79 79 79 79 79 79 80 81 81 81 81 81 80 80
64 68 64 55 47 41 46 53 56 60 69 73 74 73 71 73 80 82 79 80 82 79 79 79 80 80 79 79 78 78 78 78 78 78 79 79 79 79 79 79 79 80 81 81 81 81 80 80 80
65 67 58 50 39 42 46 54 59 64 69 71 72 76 75 76 82 83 80 80 80 79 79 79 79 79 79 79 78 78 78 78 78 78 79 79 78 78 78 79 79 80 81 81 81 80 79 79 79
63 61 55 46 41 47 50 55 55 62 68 70 72 69 77 83 83 83 81 81 78 78 79 80 79 79 79 79 78 78 78 78 78 79 78 78 78 78 78 78 79 80 81 81 80 79 79 79 78
58 53 42 37 41 49 52 56 57 58 63 66 69 69 71 77 82 80 79 80 77 76 78 80 79 79 79 79 79 78 78 78 78 78 78 78 78 78 78 78 79 79 80 80 79 79 78 78 78
52 49 39 35 41 52 54 57 59 58 63 66 67 67 69 77 83 78 79 76 78 76 77 80 80 79 79 79 78 78 78 78 78 78 78 78 78 78 78 78 78 79 79 79 79 78 77 77 77
48 43 37 38 43 48 54 61 59 58 60 64 68 64 68 77 78 79 77 76 77 77 78 80 80 78 79 78 78 78 77 77 77 77 77 77 77 77 77 77 78 78 78 78 77 77 77 77 77
50 46 37 39 43 44 56 59 58 61 62 72 74 63 64 72 77 77 76 74 73 77 79 79 79 78 77 77 78 77 77 77 77 77 77 77 77 77 77 76 77 77 77 77 77 77 77 77 76
52 40 34 38 43 47 57 54 60 68 66 68 71 69 74 76 76 71 70 74 75 77 77 80 79 76 75 76 78 77 78 77 77 77 77 76 75 76 77 76 77 77 77 77 77 76 76 76 76
47 38 41 50 50 46 54 50 58 59 61 62 68 73 75 71 73 70 66 64 71 74 76 77 79 74 77 78 77 76 75 75 74 75 75 74 74 73 75 76 77 77 77 77 77 76 76 75 73
43 42 48 51 54 52 53 55 57 57 53 62 63 67 70 69 67 68 66 66 65 69 76 77 77 75 78 79 78 77 75 74 73 73 74 74 73 73 73 72 74 74 76 74 74 73 73 73 73
42 50 51 53 54 52 51 57 56 58 60 67 67 68 69 68 67 64 63 65 66 67 70 77 77 76 78 78 76 76 74 72 74 74 74 72 71 70 71 71 72 72 73 72 72 72 72 73 74
43 48 52 55 53 50 55 54 55 55 64 66 67 68 67 68 69 64 63 64 64 65 67 71 75 75 76 73 76 75 72 73 72 74 72 70 69 69 70 70 71 72 72 71 71 71 72 72 74
49 49 50 51 51 49 49 53 52 59 64 64 65 65 65 67 69 69 61 61 62 64 66 71 73 74 76 73 74 73 74 73 72 71 70 70 69 68 69 70 71 71 72 72 72 72 72 72 74
51 45 48 48 47 50 51 48 50 60 60 59 60 63 64 66 69 72 69 65 63 64 66 68 72 73 74 72 74 72 72 71 69 69 70 70 69 68 69 70 71 71 72 71 72 72 71 71 72
45 42 34 46 49 52 50 39 53 59 55 56 59 61 63 63 66 70 71 68 67 65 66 69 72 72 73 71 72 71 71 70 70 69 70 70 70 70 70 70 71 71 70 71 71 69 68 67 69
38 33 35 41 49 48 47 43 53 59 56 55 56 57 61 62 64 65 71 69 69 66 69 69 70 70 70 69 71 70 70 70 69 69 69 70 71 72 71 71 72 72 70 70 70 68 68 67 66
35 33 37 40 46 47 43 44 51 55 55 55 55 56 57 60 62 66 67 71 70 67 69 69 70 70 69 68 68 69 70 70 69 70 70 70 71 72 70 71 71 70 69 68 68 67 66 66 65
43 39 38 44 50 44 45 47 50 54 53 52 55 55 55 58 62 64 68 68 70 70 68 69 68 69 68 68 70 68 70 70 70 71 72 70 71 72 71 70 70 69 68 68 68 66 66 63 64
42 38 37 44 49 45 45 45 51 53 53 56 57 57 55 56 59 63 64 66 66 68 68 68 69 69 69 69 69 69 70 70 73 71 72 72 73 72 71 70 68 67 67 67 66 66 64 61 59
41 38 40 41 48 47 43 42 44 51 52 55 57 57 56 57 58 61 63 65 64 69 68 69 69 69 70 70 70 69 70 70 69 70 70 72 73 72 70 69 67 67 66 65 65 65 65 60 58
38 48 46 44 39 31 43 30 40 46 49 52 56 56 56 57 57 60 62 64 64 68 71 71 68 68 68 69 71 70 70 68 69 69 69 71 72 70 69 67 66 65 64 63 62 62 60 61 59
41 48 44 43 39 34 41 30 37 43 42 46 51 54 55 55 57 59 63 65 67 66 68 71 69 68 68 69 71 70 68 69 69 68 68 67 68 68 68 67 65 63 63 60 60 59 58 58 56
49 43 41 36 33 29 36 33 33 40 44 48 51 54 55 55 57 59 64 65 64 66 66 68 69 67 68 70 70 69 68 68 67 67 66 66 66 65 65 64 62 61 61 59 59 58 57 56 55
44 33 20 20 25 26 35 33 39 47 50 50 52 53 54 54 56 57 60 63 64 64 64 68 68 66 68 70 69 70 69 68 67 66 65 64 64 63 63 62 60 59 59 59 58 57 56 55 54
36 34 23 18 22 24 35 27 36 48 54 54 55 54 53 53 53 55 57 61 64 65 64 67 66 66 68 69 68 69 68 67 68 67 66 65 64 63 63 61 60 59 59 58 57 56 55 54 54
36 32 36 25 28 28 31 36 44 49 50 52 52 53 51 52 53 55 56 57 62 64 64 66 66 67 68 66 68 68 68 68 67 67 67 65 64 62 60 59 59 59 59 58 56 55 53 53 51
40 43 26 33 25 22 27 29 32 42 45 50 48 49 50 51 52 55 56 56 58 62 66 67 68 67 66 66 68 68 67 67 67 67 66 64 62 60 59 59 59 58 57 57 55 54 53 52 51
36 34 37 35 32 26 25 29 40 43 45 45 47 49 50 51 52 54 56 58 56 59 62 66 67 67 64 65 67 68 67 67 67 66 64 63 60 59 60 59 58 57 56 55 54 53 53 51 49
42 36 35 29 28 32 27 30 49 47 46 46 47 50 52 53 54 54 55 57 56 56 57 64 67 68 65 67 68 67 67 67 64 63 61 61 60 60 59 59 58 57 56 55 55 54 52 50 48
MSLP
1009.94 1009.69 1009.68 1010.01 1011.44 1011.99 1011.32 1010.32 1009.03 1007.84 1006.65 1005.91 1005.54 1005.32 1005.07 1004.73 1004.77 1003.81 1001.94 1002.40 1001.90 1002.13 1002.66 1003.92 1004.10 1004.99 1005.88 1006.28 1006.69 1007.07 1007.62 1008.17 1008.76 1009.17 1009.41 1010.23 1010.58 1011.14 1011.51 1011.83 1012.11 1012.28 1012.57 1012.81 1012.88 1012.98 1013.03 1013.15 1013.30
1010.01 1009.88 1010.26 1011.28 1012.48 1012.77 1011.59 1010.23 1009.25 1008.25 1007.23 1005.83 1005.24 1004.88 1004.71 1003.66 1002.71 1001.62 1001.59 1002.36 1003.02 1002.41 1002.97 1003.56 1003.78 1004.93 1005.57 1006.06 1006.61 1007.13 1007.68 1008.25 1008.73 1009.39 1009.68 1010.34 1010.68 1011.25 1011.60 1011.99 1012.24 1012.36 1012.63 1012.93 1013.01 1013.11 1013.25 1013.38 1013.57
1010.04 1010.15 1011.02 1012.29 1013.34 1012.73 1011.72 1010.08 1009.37 1008.47 1007.25 1006.28 1005.35 1004.54 1004.03 1003.03 1002.28 1001.68 1001.70 1002.34 1003.39 1003.22 1003.35 1003.89 1004.43 1005.09 1005.66 1006.16 1006.52 1007.13 1007.77 1008.38 1008.82 1009.36 1009.81 1010.53 1010.85 1011.27 1011.70 1012.03 1012.38 1012.42 1012.60 1012.93 1013.15 1013.28 1013.36 1013.52 1013.74
1010.40 1010.89 1012.51 1012.95 1013.32 1012.17 1011.33 1010.13 1009.57 1008.66 1007.33 1006.46 1005.99 1005.15 1003.92 1002.90 1002.68 1002.08 1001.97 1001.51 1003.40 1003.71 1003.62 1004.01 1004.51 1005.13 1005.65 1006.27 1006.74 1007.04 1007.58 1008.29 1009.00 1009.43 1009.92 1010.42 1010.96 1011.37 1011.69 1012.08 1012.33 1012.49 1012.62 1012.98 1013.31 1013.47 1013.56 1013.55 1013.75
1011.01 1012.19 1013.65 1014.05 1013.31 1011.82 1010.99 1010.08 1009.40 1008.76 1008.03 1007.18 1006.60 1005.51 1004.49 1003.92 1003.61 1003.46 1003.09 1002.55 1003.16 1004.02 1004.04 1004.40 1004.96 1005.53 1005.94 1006.26 1006.80 1007.29 1007.75 1008.15 1008.86 1009.46 1010.03 1010.41 1010.97 1011.33 1011.67 1012.10 1012.50 1012.63 1012.82 1013.16 1013.52 1013.67 1013.75 1013.75 1013.79
1012.20 1013.23 1014.45 1014.42 1013.45 1011.82 1010.89 1009.92 1009.23 1008.91 1008.27 1007.53 1006.82 1005.95 1004.95 1004.37 1003.88 1003.79 1004.05 1003.89 1003.62 1004.37 1004.99 1004.96 1005.42 1005.96 1006.27 1006.84 1007.23 1007.61 1007.97 1008.51 1008.86 1009.57 1010.06 1010.58 1010.97 1011.41 1011.72 1012.19 1012.61 1012.90 1013.04 1013.31 1013.67 1013.76 1013.88 1013.98 1013.97
1012.65 1013.81 1014.37 1014.12 1013.19 1011.96 1010.86 1010.08 1009.59 1009.17 1008.50 1007.75 1007.01 1006.30 1005.72 1005.05 1004.28 1004.05 1004.59 1005.00 1004.32 1004.83 1005.08 1005.91 1006.24 1006.45 1006.64 1007.23 1007.83 1008.09 1008.23 1008.79 1009.31 1009.62 1010.25 1010.81 1011.26 1011.48 1011.90 1012.29 1012.65 1012.92 1013.20 1013.40 1013.55 1013.77 1013.82 1013.88 1013.90
1012.65 1013.47 1014.26 1013.69 1012.96 1012.15 1010.95 1010.43 1009.84 1009.29 1008.51 1007.75 1007.10 1006.67 1006.15 1005.92 1005.45 1005.17 1005.19 1005.70 1006.09 1005.17 1005.79 1006.24 1006.52 1007.01 1007.31 1007.72 1008.14 1008.48 1008.78 1008.98 1009.35 1009.94 1010.35 1010.93 1011.57 1011.79 1012.01 1012.37 1012.73 1013.04 1013.32 1013.50 1013.57 1013.67 1013.74 1013.71 1013.79
1012.30 1013.78 1014.32 1013.43 1012.78 1012.07 1010.99 1010.86 1009.85 1009.15 1008.62 1008.16 1007.40 1006.82 1006.56 1006.28 1005.59 1006.42 1006.21 1005.99 1006.46 1006.54 1006.70 1006.90 1007.16 1007.42 1007.72 1008.05 1008.53 1009.04 1009.34 1009.58 1009.63 1010.16 1010.56 1010.99 1011.56 1012.05 1012.35 1012.49 1012.77 1013.03 1013.28 1013.44 1013.52 1013.49 1013.52 1013.64 1013.65
1012.86 1013.98 1013.74 1012.93 1012.25 1012.08 1011.55 1011.09 1010.25 1009.56 1008.88 1008.26 1007.56 1007.02 1006.62 1006.73 1006.37 1006.91 1007.29 1007.52 1007.09 1007.04 1007.19 1007.69 1008.00 1008.07 1007.83 1008.37 1008.65 1009.44 1009.88 1010.31 1010.65 1010.70 1010.82 1011.34 1011.64 1012.25 1012.69 1012.75 1012.88 1013.15 1013.28 1013.44 1013.45 1013.44 1013.38 1013.38 1013.65
1013.14 1013.36 1013.08 1012.66 1012.35 1012.25 1011.74 1011.04 1010.39 1009.63 1009.03 1008.34 1007.94 1007.52 1006.94 1006.78 1007.05 1007.14 1007.59 1007.84 1008.14 1007.81 1007.34 1007.61 1008.14 1008.50 1008.69 1008.50 1008.63 1009.44 1010.18 1010.66 1011.14 1011.30 1011.49 1011.75 1011.99 1012.36 1012.77 1013.11 1013.12 1013.36 1013.39 1013.55 1013.53 1013.74 1013.58 1013.49 1013.37
1013.03 1012.95 1012.92 1012.68 1012.19 1012.26 1011.90 1011.23 1010.48 1009.80 1009.09 1008.22 1007.83 1007.63 1007.18 1006.79 1006.85 1007.35 1007.58 1007.44 1007.96 1008.09 1007.82 1007.61 1007.98 1008.63 1008.97 1009.03 1008.99 1008.95 1010.17 1010.89 1011.33 1011.70 1011.93 1012.12 1012.40 1012.61 1012.88 1013.07 1013.23 1013.43 1013.58 1013.64 1013.58 1013.71 1013.48 1013.35 1013.06
1012.98 1013.00 1012.81 1012.47 1012.23 1012.07 1011.56 1011.06 1010.46 1009.87 1008.97 1008.28 1008.01 1007.67 1007.35 1006.87 1006.62 1006.83 1007.18 1007.78 1007.78 1007.51 1007.66 1007.75 1007.77 1008.65 1009.07 1009.51 1009.62 1009.32 1009.60 1010.45 1011.17 1011.64 1012.01 1012.15 1012.50 1012.83 1012.79 1013.09 1013.17 1013.24 1013.51 1013.59 1013.38 1013.43 1013.16 1013.06 1012.96
1012.81 1012.91 1012.77 1012.37 1012.02 1011.69 1011.42 1010.77 1010.41 1009.49 1008.74 1008.54 1008.19 1007.90 1007.48 1007.08 1006.61 1006.50 1006.90 1007.12 1007.56 1007.46 1007.07 1007.41 1007.48 1008.22 1008.97 1009.55 1010.02 1009.88 1009.63 1010.12 1010.78 1011.17 1011.61 1012.03 1012.47 1012.84 1013.11 1013.13 1013.28 1013.30 1013.34 1013.21 1013.13 1013.09 1013.07 1012.94 1013.06
1012.94 1013.20 1012.98 1012.47 1011.97 1011.57 1011.19 1010.71 1010.20 1009.18 1009.02 1008.64 1008.29 1007.83 1007.41 1006.96 1006.31 1005.96 1005.94 1006.07 1006.54 1006.34 1006.45 1007.09 1007.20 1007.88 1008.59 1009.45 1010.06 1009.94 1009.89 1010.16 1010.77 1010.99 1011.41 1011.82 1012.43 1012.72 1013.05 1013.06 1013.30 1013.10 1013.04 1012.97 1012.96 1013.02 1013.19 1013.22 1013.27
1013.44 1013.70 1013.61 1012.55 1012.10 1011.38 1011.37 1010.79 1009.46 1008.98 1008.99 1008.67 1007.92 1007.54 1007.23 1006.73 1006.24 1005.68 1005.31 1005.22 1005.44 1005.68 1005.84 1005.67 1006.21 1007.57 1008.02 1009.06 1010.18 1010.51 1009.80 1009.87 1010.47 1010.69 1011.27 1011.65 1012.05 1012.62 1012.87 1013.02 1013.05 1012.95 1012.81 1012.78 1012.99 1013.26 1013.54 1013.72 1013.63
1014.26 1014.28 1013.75 1012.84 1011.87 1011.73 1011.44 1010.65 1009.74 1009.09 1008.99 1008.54 1007.83 1007.32 1007.18 1006.81 1006.28 1005.52 1004.97 1004.52 1004.43 1004.71 1004.87 1004.65 1004.41 1006.42 1007.64 1008.52 1009.51 1009.92 1010.28 1009.93 1010.26 1010.58 1011.08 1011.64 1011.93 1012.48 1012.85 1012.94 1012.77 1012.83 1013.05 1013.14 1013.35 1013.57 1013.76 1013.99 1014.10
1014.37 1014.30 1013.77 1012.91 1011.81 1011.53 1011.23 1010.27 1009.72 1009.07 1008.78 1008.20 1007.81 1007.11 1007.09 1006.85 1006.04 1005.45 1004.90 1004.16 1003.76 1004.19 1004.18 1004.51 1004.70 1005.64 1007.23 1008.28 1009.16 1009.62 1009.77 1010.16 1010.22 1010.51 1010.94 1011.43 1011.89 1012.09 1012.53 1012.79 1013.03 1013.20 1013.61 1013.77 1013.67 1013.71 1014.17 1014.41 1014.54
1013.97 1013.92 1013.40 1012.35 1011.58 1011.37 1010.63 1009.53 1009.26 1008.59 1008.16 1007.69 1007.11 1006.86 1006.56 1006.54 1005.79 1005.04 1004.71 1004.07 1003.81 1004.61 1004.72 1004.59 1005.58 1005.79 1006.90 1007.36 1008.44 1009.40 1009.60 1010.09 1010.46 1010.50 1010.81 1011.18 1011.57 1011.75 1012.24 1012.57 1013.20 1013.60 1013.97 1014.02 1014.04 1014.18 1014.41 1014.49 1014.55
1013.58 1013.47 1012.90 1011.70 1011.09 1011.01 1010.28 1008.64 1008.32 1008.10 1007.41 1006.79 1006.20 1006.03 1005.90 1006.16 1005.89 1005.29 1004.68 1004.15 1003.94 1004.00 1004.70 1004.60 1004.80 1005.42 1005.22 1006.01 1007.20 1008.55 1008.79 1009.93 1010.37 1010.38 1010.74 1010.95 1011.14 1011.50 1011.95 1012.64 1013.21 1013.72 1014.36 1014.53 1014.42 1014.12 1014.54 1014.93 1014.86
1012.79 1012.84 1012.28 1011.66 1010.83 1010.51 1010.10 1007.49 1007.63 1006.78 1006.12 1005.62 1005.14 1005.06 1005.13 1005.22 1005.44 1004.93 1004.59 1003.94 1003.68 1003.69 1003.98 1004.46 1004.29 1004.73 1005.20 1006.04 1007.06 1008.43 1008.76 1009.52 1010.24 1010.49 1010.97 1011.20 1011.01 1011.32 1011.73 1012.64 1012.95 1014.04 1014.03 1014.65 1014.80 1014.40 1014.48 1014.87 1015.44
1011.98 1011.74 1011.64 1011.41 1011.37 1011.05 1010.28 1007.69 1007.12 1006.24 1005.45 1004.98 1004.64 1004.54 1004.29 1004.39 1004.73 1004.32 1004.15 1003.77 1003.37 1003.28 1003.53 1004.05 1004.34 1005.06 1005.52 1006.48 1006.98 1007.92 1007.88 1008.91 1009.65 1010.31 1010.78 1010.74 1011.11 1011.49 1011.89 1012.56 1013.80 1013.92 1014.09 1014.82 1015.27 1015.15 1014.95 1014.85 1015.41
1011.56 1011.58 1011.67 1011.42 1011.50 1011.23 1010.84 1010.56 1006.54 1006.05 1005.52 1004.69 1003.93 1003.69 1003.42 1003.90 1004.24 1003.90 1003.64 1003.19 1002.67 1002.36 1002.96 1003.48 1003.90 1004.77 1005.24 1005.99 1006.70 1007.61 1007.84 1008.72 1009.26 1010.17 1010.81 1010.75 1012.06 1011.80 1012.54 1012.94 1013.52 1013.69 1014.40 1015.67 1015.65 1015.72 1016.02 1015.36 1015.59
1011.57 1011.92 1011.73 1011.60 1011.82 1011.31 1010.44 1010.06 1005.91 1005.59 1004.63 1003.90 1003.26 1002.81 1002.98 1003.38 1003.68 1003.50 1003.14 1002.97 1002.69 1002.16 1002.71 1003.08 1003.63 1004.37 1004.77 1005.68 1006.62 1006.98 1007.59 1008.30 1008.96 1010.08 1010.84 1011.78 1012.09 1012.87 1012.50 1012.34 1014.28 1014.49 1015.90 1015.46 1016.22 1016.68 1016.00 1016.07 1016.61
1011.98 1012.79 1013.09 1012.92 1012.61 1011.20 1009.96 1009.32 1005.94 1005.12 1004.16 1003.49 1002.99 1002.70 1002.73 1003.18 1003.42 1003.31 1003.15 1002.83 1002.33 1002.03 1002.38 1002.90 1003.25 1003.84 1004.41 1005.16 1005.92 1006.56 1007.12 1007.89 1008.45 1009.57 1010.40 1011.64 1012.42 1013.03 1012.95 1013.39 1013.91 1015.90 1015.54 1016.01 1016.95 1016.69 1016.29 1016.71 1017.43
1012.42 1013.28 1013.83 1013.43 1012.61 1011.40 1010.31 1008.17 1005.92 1004.31 1003.19 1002.79 1002.53 1002.58 1002.76 1003.01 1003.23 1003.19 1002.92 1002.62 1002.13 1001.72 1001.44 1002.14 1002.88 1003.61 1004.13 1004.53 1005.46 1006.23 1006.88 1007.74 1008.27 1008.74 1009.56 1010.62 1011.50 1012.99 1013.58 1013.29 1015.21 1015.42 1016.02 1016.65 1017.15 1016.70 1017.30 1017.66 1018.21
1012.32 1012.80 1012.86 1013.02 1012.39 1011.71 1009.21 1007.25 1005.54 1003.82 1003.21 1002.57 1002.49 1002.65 1002.89 1003.14 1003.44 1003.26 1002.77 1002.37 1001.89 1001.40 1000.92 1001.40 1001.91 1002.99 1003.77 1004.63 1005.09 1005.78 1006.39 1007.27 1008.06 1008.83 1009.46 1010.13 1011.02 1011.81 1013.09 1014.49 1016.09 1016.46 1016.56 1017.30 1016.64 1017.16 1017.79 1018.49 1019.00
1011.37 1011.95 1012.66 1012.97 1012.30 1011.11 1008.91 1007.24 1005.59 1004.14 1003.61 1003.20 1003.10 1003.22 1003.09 1003.11 1003.25 1002.93 1002.37 1001.98 1001.41 1001.03 1000.41 1000.87 1001.09 1002.01 1002.85 1003.83 1004.51 1005.27 1006.13 1007.39 1008.17 1008.86 1009.11 1010.42 1011.38 1012.18 1013.64 1014.91 1015.88 1016.44 1017.22 1017.10 1016.83 1017.63 1018.63 1019.12 1019.51
1011.47 1011.75 1012.25 1012.73 1012.42 1011.14 1009.13 1006.37 1004.61 1004.02 1003.73 1003.51 1003.43 1003.14 1002.84 1002.57 1002.73 1002.82 1002.31 1001.51 1001.57 1001.09 1000.81 1000.59 1000.40 1001.79 1002.75 1003.24 1004.30 1005.23 1006.19 1007.36 1007.74 1008.77 1009.86 1010.64 1011.59 1012.50 1013.69 1015.28 1015.96 1016.39 1016.77 1017.08 1017.77 1018.41 1019.09 1019.56 1019.82
1010.80 1011.27 1011.77 1012.06 1011.61 1010.58 1009.11 1005.50 1004.03 1003.59 1003.69 1003.62 1003.68 1003.14 1002.50 1002.21 1002.15 1002.25 1002.14 1001.47 1001.18 1001.04 1000.76 1000.24 1000.16 1000.98 1002.24 1002.88 1003.98 1004.94 1005.98 1007.19 1007.99 1009.08 1010.61 1011.29 1012.41 1013.53 1014.44 1015.49 1015.99 1016.48 1016.71 1017.67 1018.58 1019.04 1019.57 1019.57 1019.92
Wind_Speed
6 6 2 5 4 5 3 6 2 2 2 1 2 4 7 4 7 9 3 13 10 18 19 19 24 22 21 21 22 22 20 20 19 19 20 19 19 17 16 15 14 14 13 11 10 10 9 8 8
3 2 5 3 6 2 5 4 3 3 5 9 4 2 4 9 6 12 6 8 9 18 17 18 26 23 22 22 22 21 21 20 19 18 19 18 18 17 16 15 14 13 13 11 10 10 8 7 7
2 2 5 5 4 6 5 3 6 5 8 7 7 4 6 4 3 4 5 13 9 13 14 16 23 22 22 21 22 22 21 20 20 19 19 18 17 17 15 14 12 13 13 11 9 8 7 6 5
2 5 5 6 6 7 6 2 1 5 6 5 4 8 7 5 10 6 7 18 11 10 13 21 23 22 22 22 22 23 23 21 20 20 19 19 17 16 14 13 12 12 12 10 8 7 6 6 5
5 4 5 3 4 6 1 2 1 2 4 5 7 8 5 6 14 11 2 11 13 9 11 16 23 20 21 22 21 21 21 22 21 20 19 18 17 15 14 12 11 11 11 9 7 5 4 3 2
5 4 4 3 5 5 3 2 2 2 4 7 9 7 4 2 20 7 6 3 10 9 8 13 20 18 18 18 19 20 20 20 20 19 18 17 16 14 13 11 9 8 8 6 5 3 2 1 2
7 5 4 5 3 2 1 6 4 3 4 4 7 7 7 17 19 4 7 6 7 7 10 11 12 13 17 17 16 18 19 19 18 18 17 15 14 14 12 10 9 7 6 5 4 2 1 3 4
6 5 3 2 2 3 3 6 3 5 4 8 6 5 9 10 17 12 11 10 7 8 7 9 9 8 8 9 15 16 17 18 18 16 16 15 13 12 11 10 8 7 5 4 3 2 3 4 6
3 6 1 2 2 3 8 6 3 4 7 4 5 3 5 8 13 15 9 7 6 2 4 7 10 6 6 6 9 11 15 15 16 15 15 12 5 6 8 8 8 7 6 4 3 3 4 6 7
6 4 8 6 2 1 7 2 7 2 5 4 6 7 7 5 5 9 9 8 9 3 3 1 7 3 8 5 8 6 5 3 4 5 8 5 5 4 5 6 7 6 6 5 4 4 3 4 3
1 4 3 1 3 1 4 6 2 3 1 7 7 7 10 2 3 3 4 2 3 6 1 3 3 2 6 8 6 4 3 2 1 2 5 6 4 4 3 1 1 1 4 1 1 2 2 2 2
1 1 3 6 3 4 4 5 7 6 7 7 9 6 6 7 4 5 5 8 3 3 8 3 5 4 8 3 6 7 5 3 4 4 7 5 3 3 3 2 2 2 2 2 1 1 2 3 4
2 1 4 7 9 6 6 7 8 5 12 9 9 8 9 8 5 4 5 5 5 6 1 6 7 5 4 4 6 7 6 5 4 6 5 4 3 4 3 3 2 3 2 3 2 2 2 3 2
3 3 7 6 8 5 3 5 2 7 7 8 8 11 8 8 8 3 5 7 7 5 4 4 8 7 5 3 6 5 6 6 6 6 5 5 4 3 3 3 2 2 3 3 3 3 2 1 3
3 5 7 4 1 6 3 4 5 8 5 10 9 9 8 10 8 9 9 8 11 9 12 10 10 9 8 6 7 5 6 6 4 4 5 6 5 5 4 3 2 3 4 4 2 2 3 4 3
5 4 3 6 5 4 4 9 10 12 5 11 9 8 6 6 7 9 9 9 9 9 13 15 13 11 11 7 5 5 6 6 5 6 5 7 6 5 4 3 3 3 2 3 3 3 4 3 2
5 5 5 7 5 3 3 9 11 14 9 9 10 9 5 7 8 9 10 10 8 9 9 12 13 14 12 10 7 6 5 5 5 5 5 6 6 5 3 3 3 3 2 3 3 3 2 1 3
7 5 6 11 6 4 7 15 13 13 7 12 9 8 6 8 12 8 11 10 8 8 7 11 12 15 14 8 5 3 5 3 4 5 5 6 5 6 5 3 3 3 3 3 2 3 3 2 1
6 6 11 12 13 6 13 17 13 14 10 12 10 8 7 9 8 8 8 9 5 6 11 13 14 17 14 11 9 5 7 5 5 5 6 7 7 7 6 5 4 3 2 2 3 2 3 5 3
7 7 8 9 12 6 11 18 15 13 10 15 15 12 8 5 5 8 9 8 7 9 10 14 13 11 10 10 9 5 6 3 4 4 6 8 9 9 7 7 5 4 3 2 1 2 2 3 5
6 6 8 16 15 6 8 21 10 9 9 11 13 10 8 10 9 8 8 8 5 10 12 14 15 14 13 11 7 3 6 5 3 5 4 5 9 9 9 7 6 4 4 3 2 2 3 3 5
10 9 12 12 8 6 5 15 5 9 15 11 14 10 10 9 7 8 9 8 8 13 13 13 12 14 12 12 10 11 10 9 4 3 5 8 8 9 9 9 5 6 4 5 3 4 2 3 4
6 6 7 13 11 5 6 5 5 2 5 10 10 12 12 6 9 10 9 10 10 6 12 14 13 13 14 14 11 8 8 8 8 8 9 8 6 11 8 9 7 9 7 4 5 6 6 5 4
3 5 10 3 2 7 12 10 4 6 8 6 6 8 7 4 7 8 8 7 9 8 7 12 14 14 14 15 10 11 15 13 11 11 9 6 6 4 9 14 8 9 4 7 5 5 9 8 7
8 6 5 6 1 6 5 7 14 13 9 9 10 9 6 2 5 7 7 7 8 9 7 12 14 13 15 16 13 11 15 16 17 14 11 10 6 6 10 10 11 3 6 7 4 7 9 8 7
8 6 5 5 4 5 3 9 7 9 11 8 7 7 5 3 1 6 7 7 8 10 8 11 14 13 15 15 14 13 14 10 12 14 13 11 10 7 8 12 7 6 7 7 6 9 8 8 6
3 5 4 2 4 6 4 7 9 11 9 6 6 1 3 5 4 7 6 8 9 10 10 11 13 14 17 15 16 15 14 15 12 12 11 10 13 12 12 11 7 7 9 8 10 9 9 7 5
7 5 2 2 4 5 5 5 7 7 4 4 6 7 7 4 5 6 6 7 9 10 11 11 12 16 18 17 15 15 15 12 12 10 12 12 13 15 13 12 11 11 9 9 12 9 7 8 4
2 3 3 3 3 4 6 5 7 7 8 5 6 8 9 8 5 5 7 7 3 7 8 11 12 14 15 17 14 16 14 12 14 12 12 13 14 15 14 10 11 11 11 11 10 9 8 8 6
5 4 6 3 3 5 4 11 7 5 5 4 8 10 11 6 6 4 6 7 7 6 11 12 12 15 17 17 16 15 15 14 14 14 12 15 14 12 12 12 11 12 12 10 9 9 7 8 8
Wind_Direction
333 319 36 40 66 63 248 250 298 338 12 339 184 141 201 174 179 224 181 197 156 148 147 151 144 148 148 140 136 134 132 131 132 134 132 134 137 140 143 147 152 151 154 151 145 145 148 150 148
330 348 43 79 99 118 265 251 164 347 292 300 258 309 275 256 234 290 77 141 173 149 149 152 147 151 148 143 139 137 136 137 136 136 134 139 140 144 147 153 156 152 154 154 154 156 156 155 151
324 45 87 99 119 185 204 219 72 308 308 340 323 346 271 251 257 267 159 125 138 142 146 151 148 148 147 143 140 139 139 142 141 141 140 143 144 148 152 155 157 157 159 165 168 162 157 153 156
51 16 36 100 204 250 186 145 63 332 318 320 317 291 303 332 336 330 126 132 136 147 147 154 152 151 148 146 146 146 146 145 145 144 146 147 150 152 154 155 158 161 163 172 173 164 169 162 165
35 53 72 109 252 271 215 295 340 328 283 301 326 294 274 13 352 2 70 130 133 143 144 152 156 152 151 151 151 149 149 147 149 149 151 151 153 156 156 157 162 162 168 172 169 171 182 179 174
47 93 81 210 247 282 309 203 237 79 306 303 347 295 276 321 349 352 3 30 119 130 139 155 160 155 151 153 153 152 150 151 151 152 153 156 156 157 156 155 160 165 163 162 172 175 220 312 345
113 91 183 167 212 306 232 341 15 343 313 340 298 297 290 348 323 58 40 25 86 100 131 158 162 160 153 155 157 155 153 154 153 153 155 157 158 158 155 153 158 158 158 161 157 207 281 313 322
106 92 134 224 165 239 287 3 243 23 287 306 349 329 322 344 27 30 47 33 358 107 128 160 160 158 150 152 158 157 159 158 157 156 157 157 162 160 154 153 154 156 166 171 183 243 300 323 319
119 61 108 243 131 260 301 10 283 272 271 324 261 280 291 329 58 25 14 31 25 73 124 172 172 144 138 141 161 161 164 164 161 163 161 156 152 157 158 156 164 167 179 194 224 259 310 322 324
84 105 211 213 244 303 306 289 287 262 287 265 288 299 319 15 34 70 30 12 10 22 142 338 195 167 141 150 156 157 158 146 165 161 159 154 141 131 153 166 175 185 195 218 244 271 293 343 315
114 173 196 293 275 39 263 306 302 268 299 250 269 292 314 28 81 108 133 71 317 331 83 158 197 216 181 171 160 156 155 142 119 134 157 162 155 145 140 148 186 194 224 232 319 326 325 322 297
101 2 82 297 285 323 284 293 304 230 248 248 277 267 285 322 312 143 189 192 146 1 4 159 154 200 198 199 167 154 160 152 177 178 175 162 148 139 157 180 191 194 226 242 220 264 277 275 277
117 286 293 271 286 242 254 240 238 244 264 287 278 296 285 293 279 212 198 183 169 148 83 322 140 174 187 205 192 167 147 160 159 178 180 152 156 174 168 189 193 203 185 230 225 226 232 249 303
243 271 282 280 276 260 254 269 182 254 254 276 273 273 278 272 273 237 214 207 196 189 171 295 156 162 163 198 207 185 165 166 179 175 170 162 159 174 196 184 201 224 211 220 229 224 246 267 121
294 324 332 294 292 291 209 308 226 249 277 270 263 252 269 259 255 246 224 209 194 202 174 186 163 165 169 192 209 192 180 159 165 151 162 160 175 180 192 179 210 236 216 218 234 111 93 82 88
357 70 8 273 311 270 68 274 277 294 313 290 281 252 256 264 247 261 259 247 188 185 196 176 162 163 167 172 211 236 181 162 170 165 169 174 171 178 181 184 212 230 186 178 132 112 80 74 54
355 257 280 302 227 269 186 266 283 294 296 285 287 282 271 293 278 261 266 253 239 208 175 155 141 161 181 174 182 186 201 168 177 163 165 183 160 164 179 184 202 187 140 111 121 75 88 57 25
276 282 269 277 284 211 261 263 274 277 280 276 270 279 254 264 262 254 264 259 265 191 173 161 160 167 174 156 157 172 175 198 163 164 170 152 152 150 147 140 125 102 107 92 93 98 58 76 42
274 282 268 274 276 283 275 279 280 279 283 276 275 256 246 239 263 245 260 262 264 174 187 179 183 179 172 160 171 182 193 181 185 164 169 149 155 145 141 128 123 106 102 155 151 120 94 36 17
244 253 266 268 267 235 272 273 278 273 252 257 265 263 240 200 241 255 254 261 216 215 193 186 193 184 179 166 171 187 160 158 177 138 153 156 147 139 135 133 127 118 120 98 88 128 119 71 14
244 239 270 274 291 256 280 279 240 248 236 241 249 240 230 213 219 234 238 254 228 215 204 191 183 187 191 180 156 127 116 110 107 135 133 149 137 131 128 117 116 132 114 83 36 82 112 128 45
290 268 281 277 293 278 123 295 233 239 251 252 257 258 240 223 202 231 219 242 239 213 206 208 183 182 182 179 178 171 168 158 141 137 150 136 129 117 130 106 105 96 89 77 44 33 54 103 96
240 302 274 272 261 287 213 260 277 275 244 252 256 246 252 226 194 226 221 227 235 209 195 201 188 188 182 180 181 173 121 122 123 116 116 93 107 109 86 94 107 94 72 75 69 60 68 69 86
313 346 312 6 150 253 219 198 303 228 233 265 257 266 254 208 207 232 239 234 241 264 181 191 186 185 177 175 179 165 142 137 129 134 130 128 116 90 103 93 58 71 112 81 72 93 80 74 72
9 35 328 330 253 239 327 213 253 292 272 246 259 271 278 164 199 225 234 229 230 245 201 185 191 180 184 177 169 160 150 146 138 135 132 126 115 110 90 93 85 102 81 81 112 86 77 68 76
277 171 175 263 250 268 319 252 250 245 281 279 259 267 317 350 300 252 249 245 234 233 226 186 177 173 181 177 165 156 158 153 152 150 144 138 129 104 116 91 119 115 116 110 113 86 75 77 73
201 195 224 262 241 270 234 290 301 266 307 270 244 295 343 328 297 267 279 242 233 227 214 207 175 170 178 170 161 152 152 158 164 154 148 132 132 130 117 116 130 123 111 130 100 90 83 78 69
178 170 38 212 274 259 274 259 241 285 270 344 352 312 290 253 258 288 291 265 228 228 212 210 182 173 165 161 158 160 156 144 145 140 126 133 125 119 122 132 137 129 121 110 94 93 88 85 59
152 223 168 219 220 263 296 254 217 249 253 236 300 296 295 308 296 273 291 304 257 254 245 207 181 158 167 162 163 161 154 148 137 136 135 129 122 130 125 129 128 121 115 95 97 93 93 86 67
175 216 163 222 223 233 234 261 257 240 255 260 286 288 290 278 289 268 254 280 294 237 238 213 193 161 169 166 162 159 147 148 136 134 128 126 120 115 124 128 117 112 104 103 104 100 92 81 64